| time (UTC) | temp F | wind direction | speed MPH | gust MPH | rain 1hr in | rain 24hr in | rain mn in | humidity % | barometer mb |
| 20260901133219 | 77 | 343 | 2.0 | 3.0 | 0.00 | 0.00 | 0.00 | 85 | 1015.0 |
| 20260901132709 | 77 | 289 | 0.0 | 1.0 | 0.00 | 0.00 | 0.00 | 85 | 1015.0 |
| 20260901132212 | 77 | 20 | 0.0 | 2.0 | 0.00 | 0.00 | 0.00 | 85 | 1015.0 |
| 20260901131709 | 77 | 274 | 0.0 | 3.0 | 0.00 | 0.00 | 0.00 | 85 | 1015.0 |
| 20260901131209 | 77 | 88 | 0.0 | 2.0 | 0.00 | 0.00 | 0.00 | 86 | 1015.0 |
| 20260901130713 | 77 | 58 | 2.0 | 4.0 | 0.00 | 0.00 | 0.00 | 85 | 1015.0 |
| 20260901130210 | 77 | 355 | 1.0 | 5.0 | 0.00 | 0.00 | 0.00 | 86 | 1015.0 |
| 20260901125710 | 76 | 173 | 1.0 | 3.0 | 0.00 | 0.00 | 0.00 | 87 | 1015.0 |
| 20260901125211 | 76 | 104 | 1.0 | 1.0 | 0.00 | 0.00 | 0.00 | 88 | 1015.0 |
| 20260901124709 | 76 | 96 | 0.0 | 1.0 | 0.00 | 0.00 | 0.00 | 88 | 1015.0 |
| 20260901124209 | 76 | 343 | 2.0 | 2.0 | 0.00 | 0.00 | 0.00 | 88 | 1015.0 |
| 20260901123709 | 75 | 271 | 2.0 | 2.0 | 0.00 | 0.00 | 0.00 | 89 | 1015.0 |
| 20260901123209 | 75 | 85 | 0.0 | 5.0 | 0.00 | 0.00 | 0.00 | 89 | 1015.0 |
| 20260901122710 | 75 | 353 | 0.0 | 3.0 | 0.00 | 0.00 | 0.00 | 89 | 1015.0 |
| 20260901122210 | 75 | 313 | 0.0 | 0.0 | 0.00 | 0.00 | 0.00 | 90 | 1015.0 |
| 20260901121709 | 75 | 159 | 0.0 | 3.0 | 0.00 | 0.00 | 0.00 | 90 | 1015.0 |
| 20260901121210 | 75 | 42 | 0.0 | 1.0 | 0.00 | 0.00 | 0.00 | 90 | 1015.0 |
| 20260901120711 | 75 | 32 | 0.0 | 3.0 | 0.00 | 0.00 | 0.00 | 90 | 1015.0 |
| 20260901120213 | 75 | 78 | 1.0 | 3.0 | 0.00 | 0.00 | 0.00 | 90 | 1015.0 |
| 20260901115709 | 75 | 199 | 0.0 | 0.0 | 0.00 | 0.00 | 0.00 | 90 | 1015.0 |
| 20260901115209 | 75 | 43 | 0.0 | 0.0 | 0.00 | 0.00 | 0.00 | 90 | 1015.0 |
| 20260901114711 | 75 | 222 | 0.0 | 0.0 | 0.00 | 0.00 | 0.00 | 90 | 1015.0 |
| 20260901114211 | 75 | 350 | 0.0 | 1.0 | 0.00 | 0.00 | 0.00 | 90 | 1015.0 |
| 20260901113710 | 75 | 296 | 0.0 | 2.0 | 0.00 | 0.00 | 0.00 | 90 | 1015.0 |
| 20260901113209 | 74 | 155 | 0.0 | 2.0 | 0.00 | 0.00 | 0.00 | 89 | 1015.0 |
| 20260901112709 | 75 | 279 | 0.0 | 1.0 | 0.00 | 0.00 | 0.00 | 89 | 1015.0 |
| 20260901112209 | 74 | 85 | 0.0 | 0.0 | 0.00 | 0.00 | 0.00 | 89 | 1015.0 |
| 20260901111709 | 74 | 112 | 0.0 | 3.0 | 0.00 | 0.00 | 0.00 | 89 | 1014.0 |
| 20260901111210 | 74 | 67 | 0.0 | 2.0 | 0.00 | 0.00 | 0.00 | 89 | 1015.0 |
| 20260901110709 | 74 | 271 | 1.0 | 3.0 | 0.00 | 0.00 | 0.00 | 88 | 1014.0 |
| 20260901110209 | 74 | 125 | 0.0 | 2.0 | 0.00 | 0.00 | 0.00 | 88 | 1014.0 |
| 20260901105711 | 74 | 123 | 0.0 | 0.0 | 0.00 | 0.00 | 0.00 | 88 | 1014.0 |
| 20260901105209 | 74 | 100 | 0.0 | 0.0 | 0.00 | 0.00 | 0.00 | 87 | 1014.0 |
| 20260901104711 | 74 | 164 | 2.0 | 2.0 | 0.00 | 0.00 | 0.00 | 87 | 1014.0 |
| 20260901104210 | 74 | 120 | 0.0 | 3.0 | 0.00 | 0.00 | 0.00 | 87 | 1014.0 |
| 20260901103709 | 74 | 60 | 0.0 | 0.0 | 0.00 | 0.00 | 0.00 | 87 | 1014.0 |
| 20260901103209 | 74 | 171 | 1.0 | 3.0 | 0.00 | 0.00 | 0.00 | 87 | 1014.0 |
| 20260901102710 | 74 | 144 | 3.0 | 3.0 | 0.00 | 0.00 | 0.00 | 87 | 1014.0 |
| 20260901102210 | 74 | 146 | 0.0 | 3.0 | 0.00 | 0.00 | 0.00 | 88 | 1014.0 |
| 20260901101709 | 73 | 105 | 1.0 | 4.0 | 0.00 | 0.00 | 0.00 | 89 | 1014.0 |
| 20260901101209 | 73 | 137 | 1.0 | 1.0 | 0.00 | 0.00 | 0.00 | 89 | 1014.0 |
| 20260901100709 | 73 | 176 | 0.0 | 2.0 | 0.00 | 0.00 | 0.00 | 90 | 1014.0 |
| 20260901100209 | 73 | 144 | 0.0 | 0.0 | 0.00 | 0.00 | 0.00 | 90 | 1014.0 |
| 20260901095711 | 74 | 148 | 0.0 | 0.0 | 0.00 | 0.00 | 0.00 | 89 | 1014.0 |
| 20260901095210 | 73 | 156 | 0.0 | 0.0 | 0.00 | 0.00 | 0.00 | 89 | 1014.0 |
| 20260901094710 | 73 | 147 | 0.0 | 0.0 | 0.00 | 0.00 | 0.00 | 89 | 1014.0 |
| 20260901094209 | 74 | 198 | 0.0 | 0.0 | 0.00 | 0.00 | 0.00 | 88 | 1014.0 |
| 20260901093709 | 73 | 109 | 0.0 | 0.0 | 0.00 | 0.00 | 0.00 | 88 | 1014.0 |
| 20260901093209 | 73 | 216 | 0.0 | 0.0 | 0.00 | 0.00 | 0.00 | 88 | 1014.0 |
| 20260901092711 | 74 | 120 | 0.0 | 0.0 | 0.00 | 0.00 | 0.00 | 88 | 1014.0 |
| 20260901092209 | 74 | 152 | 0.0 | 0.0 | 0.00 | 0.00 | 0.00 | 88 | 1014.0 |
| 20260901091709 | 74 | 242 | 0.0 | 1.0 | 0.00 | 0.00 | 0.00 | 88 | 1014.0 |
| 20260901091209 | 74 | 136 | 0.0 | 0.0 | 0.00 | 0.00 | 0.00 | 87 | 1014.0 |
| 20260901090711 | 74 | 65 | 0.0 | 0.0 | 0.00 | 0.00 | 0.00 | 87 | 1014.0 |
| 20260901090210 | 74 | 135 | 0.0 | 0.0 | 0.00 | 0.00 | 0.00 | 87 | 1014.0 |
| 20260901085710 | 74 | 289 | 0.0 | 0.0 | 0.00 | 0.00 | 0.00 | 87 | 1014.0 |
| 20260901085209 | 74 | 176 | 0.0 | 0.0 | 0.00 | 0.00 | 0.00 | 87 | 1014.0 |
| 20260901084709 | 74 | 59 | 0.0 | 0.0 | 0.00 | 0.00 | 0.00 | 87 | 1014.0 |
| 20260901084209 | 74 | 80 | 0.0 | 0.0 | 0.00 | 0.00 | 0.00 | 87 | 1014.0 |
| 20260901083709 | 74 | 109 | 1.0 | 3.0 | 0.00 | 0.00 | 0.00 | 87 | 1014.0 |
| 20260901083209 | 74 | 130 | 2.0 | 2.0 | 0.00 | 0.00 | 0.00 | 87 | 1014.0 |
| 20260901082709 | 74 | 224 | 2.0 | 2.0 | 0.00 | 0.00 | 0.00 | 87 | 1014.0 |
| 20260901082209 | 74 | 129 | 0.0 | 1.0 | 0.00 | 0.00 | 0.00 | 88 | 1014.0 |
| 20260901081712 | 73 | 326 | 0.0 | 2.0 | 0.00 | 0.00 | 0.00 | 88 | 1014.0 |
| 20260901081210 | 73 | 250 | 0.0 | 1.0 | 0.00 | 0.00 | 0.00 | 89 | 1014.0 |
| 20260901080709 | 73 | 285 | 0.0 | 0.0 | 0.00 | 0.00 | 0.00 | 91 | 1014.0 |
| 20260901080209 | 72 | 85 | 0.0 | 3.0 | 0.00 | 0.00 | 0.00 | 92 | 1014.0 |
| 20260901075709 | 72 | 201 | 0.0 | 0.0 | 0.00 | 0.00 | 0.00 | 93 | 1014.0 |
| 20260901075209 | 72 | 77 | 0.0 | 0.0 | 0.00 | 0.00 | 0.00 | 94 | 1014.0 |
| 20260901074710 | 71 | 275 | 0.0 | 0.0 | 0.00 | 0.00 | 0.00 | 95 | 1014.0 |
| 20260901074211 | 71 | 273 | 0.0 | 0.0 | 0.00 | 0.00 | 0.00 | 96 | 1014.0 |
| 20260901073709 | 71 | 153 | 0.0 | 0.0 | 0.00 | 0.00 | 0.00 | 96 | 1014.0 |
| 20260901073211 | 71 | 131 | 0.0 | 0.0 | 0.00 | 0.00 | 0.00 | 96 | 1014.0 |
| 20260901072710 | 71 | 87 | 0.0 | 0.0 | 0.00 | 0.00 | 0.00 | 96 | 1014.0 |
| 20260901072210 | 71 | 125 | 0.0 | 0.0 | 0.00 | 0.00 | 0.00 | 97 | 1014.0 |
| 20260901071710 | 71 | 172 | 0.0 | 0.0 | 0.00 | 0.00 | 0.00 | 97 | 1014.0 |
| 20260901071209 | 71 | 345 | 0.0 | 0.0 | 0.00 | 0.00 | 0.00 | 97 | 1014.0 |
| 20260901070710 | 71 | 132 | 0.0 | 0.0 | 0.00 | 0.00 | 0.00 | 97 | 1014.0 |
| 20260901070210 | 71 | 202 | 0.0 | 0.0 | 0.00 | 0.00 | 0.00 | 97 | 1014.0 |
| 20260901065710 | 71 | 212 | 0.0 | 0.0 | 0.00 | 0.00 | 0.00 | 97 | 1014.0 |
| 20260901065211 | 71 | 163 | 0.0 | 0.0 | 0.00 | 0.00 | 0.00 | 97 | 1014.0 |
| 20260901064709 | 71 | 142 | 0.0 | 0.0 | 0.00 | 0.00 | 0.00 | 97 | 1015.0 |
| 20260901064209 | 71 | 122 | 0.0 | 0.0 | 0.00 | 0.00 | 0.00 | 97 | 1015.0 |
| 20260901063709 | 70 | 126 | 0.0 | 0.0 | 0.00 | 0.00 | 0.00 | 97 | 1015.0 |
| 20260901063209 | 70 | 161 | 0.0 | 0.0 | 0.00 | 0.00 | 0.00 | 97 | 1015.0 |
| 20260901062712 | 70 | 156 | 0.0 | 0.0 | 0.00 | 0.00 | 0.00 | 97 | 1015.0 |
| 20260901062210 | 70 | 127 | 0.0 | 0.0 | 0.00 | 0.00 | 0.00 | 97 | 1015.0 |
| 20260901061709 | 70 | 129 | 0.0 | 0.0 | 0.00 | 0.00 | 0.00 | 97 | 1015.0 |
| 20260901061209 | 70 | 121 | 0.0 | 0.0 | 0.00 | 0.00 | 0.00 | 97 | 1015.0 |
| 20260901060709 | 70 | 150 | 0.0 | 0.0 | 0.00 | 0.00 | 0.00 | 97 | 1015.0 |
| 20260901060210 | 70 | 53 | 0.0 | 0.0 | 0.00 | 0.00 | 0.00 | 97 | 1015.0 |
| 20260901055709 | 71 | 132 | 0.0 | 0.0 | 0.00 | 0.00 | 0.00 | 97 | 1015.0 |
| 20260901055210 | 70 | 123 | 0.0 | 0.0 | 0.00 | 0.00 | 0.00 | 97 | 1015.0 |
| 20260901054710 | 71 | 140 | 0.0 | 0.0 | 0.00 | 0.00 | 0.00 | 97 | 1015.0 |
| 20260901054210 | 71 | 159 | 0.0 | 0.0 | 0.00 | 0.00 | 0.00 | 97 | 1015.0 |
| 20260901053709 | 70 | 129 | 0.0 | 0.0 | 0.00 | 0.00 | 0.00 | 97 | 1015.0 |
| 20260901053210 | 70 | 119 | 0.0 | 0.0 | 0.00 | 0.00 | 0.00 | 97 | 1016.0 |
| 20260901052710 | 71 | 321 | 0.0 | 0.0 | 0.00 | 0.00 | 0.00 | 97 | 1016.0 |
| 20260901052209 | 71 | 117 | 0.0 | 0.0 | 0.00 | 0.00 | 0.00 | 97 | 1016.0 |
| 20260901051709 | 70 | 127 | 0.0 | 0.0 | 0.00 | 0.00 | 0.00 | 97 | 1016.0 |
| 20260901051210 | 70 | 157 | 0.0 | 0.0 | 0.00 | 0.00 | 0.00 | 97 | 1016.0 |
| 20260901050711 | 70 | 108 | 0.0 | 0.0 | 0.00 | 0.00 | 0.00 | 97 | 1016.0 |
| 20260901050209 | 70 | 91 | 0.0 | 0.0 | 0.00 | 0.00 | 0.00 | 97 | 1016.0 |
| 20260901045709 | 70 | 96 | 0.0 | 0.0 | 0.00 | 0.00 | 0.00 | 97 | 1016.0 |
| 20260901045210 | 70 | 147 | 0.0 | 0.0 | 0.00 | 0.00 | 0.00 | 97 | 1016.0 |
| 20260901044709 | 70 | 130 | 0.0 | 0.0 | 0.00 | 0.00 | 0.00 | 97 | 1016.0 |
| 20260901044210 | 70 | 123 | 0.0 | 0.0 | 0.01 | 0.00 | 0.00 | 97 | 1016.0 |
| 20260901043709 | 70 | 110 | 0.0 | 0.0 | 0.01 | 0.00 | 0.00 | 97 | 1016.0 |
| 20260901043210 | 70 | 106 | 0.0 | 0.0 | 0.01 | 0.00 | 0.00 | 97 | 1016.0 |
| 20260901042710 | 70 | 109 | 0.0 | 0.0 | 0.01 | 0.00 | 0.00 | 97 | 1017.0 |
| 20260901042210 | 70 | 123 | 0.0 | 0.0 | 0.01 | 0.00 | 0.00 | 97 | 1017.0 |
| 20260901041709 | 70 | 153 | 0.0 | 0.0 | 0.01 | 0.00 | 0.00 | 97 | 1017.0 |
| 20260901041209 | 70 | 100 | 0.0 | 0.0 | 0.01 | 0.00 | 0.00 | 97 | 1017.0 |
| 20260901040710 | 70 | 96 | 0.0 | 0.0 | 0.01 | 0.00 | 0.00 | 97 | 1017.0 |
| 20260901040209 | 70 | 128 | 0.0 | 0.0 | 0.01 | 0.00 | 0.64 | 97 | 1017.0 |
| 20260901035709 | 70 | 172 | 0.0 | 0.0 | 0.01 | 0.00 | 0.64 | 97 | 1017.0 |
| 20260901035210 | 70 | 123 | 0.0 | 0.0 | 0.01 | 0.00 | 0.64 | 97 | 1017.0 |
| 20260901034710 | 70 | 124 | 0.0 | 0.0 | 0.01 | 0.00 | 0.64 | 97 | 1017.0 |
| 20260901034210 | 70 | 242 | 0.0 | 0.0 | 0.00 | 0.00 | 0.63 | 97 | 1017.0 |
| 20260901033709 | 70 | 123 | 0.0 | 0.0 | 0.00 | 0.00 | 0.63 | 97 | 1017.0 |
| 20260901033210 | 70 | 98 | 0.0 | 0.0 | 0.00 | 0.00 | 0.63 | 97 | 1017.0 |
| 20260901032709 | 70 | 111 | 0.0 | 0.0 | 0.00 | 0.00 | 0.63 | 97 | 1017.0 |
| 20260901032209 | 70 | 129 | 0.0 | 0.0 | 0.00 | 0.00 | 0.63 | 97 | 1017.0 |
| 20260901031710 | 70 | 119 | 0.0 | 0.0 | 0.00 | 0.00 | 0.63 | 96 | 1017.0 |
| 20260901031210 | 70 | 126 | 0.0 | 0.0 | 0.00 | 0.00 | 0.63 | 96 | 1017.0 |
| 20260901030710 | 70 | 104 | 0.0 | 0.0 | 0.00 | 0.00 | 0.63 | 97 | 1017.0 |
| 20260901030209 | 70 | 75 | 0.0 | 0.0 | 0.00 | 0.00 | 0.63 | 96 | 1017.0 |
| 20260901025710 | 70 | 143 | 0.0 | 0.0 | 0.00 | 0.00 | 0.63 | 96 | 1017.0 |
| 20260901025210 | 70 | 128 | 0.0 | 0.0 | 0.00 | 0.00 | 0.63 | 96 | 1017.0 |
| 20260901024711 | 70 | 118 | 0.0 | 0.0 | 0.00 | 0.00 | 0.63 | 96 | 1017.0 |
| 20260901024210 | 71 | 115 | 0.0 | 0.0 | 0.00 | 0.00 | 0.63 | 96 | 1017.0 |
| 20260901023710 | 71 | 80 | 0.0 | 0.0 | 0.00 | 0.00 | 0.63 | 96 | 1017.0 |
| 20260901023210 | 71 | 114 | 0.0 | 0.0 | 0.00 | 0.00 | 0.63 | 96 | 1017.0 |
| 20260901022710 | 71 | 108 | 0.0 | 0.0 | 0.00 | 0.00 | 0.63 | 96 | 1017.0 |
| 20260901022209 | 71 | 104 | 0.0 | 0.0 | 0.00 | 0.00 | 0.63 | 96 | 1017.0 |
| 20260901021709 | 71 | 114 | 0.0 | 0.0 | 0.00 | 0.00 | 0.63 | 96 | 1017.0 |
| 20260901021209 | 71 | 106 | 0.0 | 0.0 | 0.00 | 0.00 | 0.63 | 96 | 1017.0 |
| 20260901020711 | 71 | 137 | 0.0 | 0.0 | 0.00 | 0.00 | 0.63 | 96 | 1017.0 |
| 20260901020210 | 71 | 144 | 0.0 | 0.0 | 0.00 | 0.00 | 0.63 | 96 | 1017.0 |
| 20260901015709 | 71 | 132 | 0.0 | 0.0 | 0.00 | 0.00 | 0.63 | 96 | 1017.0 |
| 20260901015209 | 71 | 113 | 0.0 | 0.0 | 0.00 | 0.00 | 0.63 | 96 | 1017.0 |
| 20260901014710 | 71 | 143 | 0.0 | 0.0 | 0.00 | 0.00 | 0.63 | 96 | 1017.0 |
| 20260901014209 | 72 | 129 | 0.0 | 0.0 | 0.00 | 0.00 | 0.63 | 96 | 1017.0 |
| 20260901013710 | 72 | 138 | 0.0 | 0.0 | 0.00 | 0.00 | 0.63 | 96 | 1017.0 |
| 20260901013209 | 72 | 138 | 0.0 | 0.0 | 0.00 | 0.00 | 0.63 | 96 | 1018.0 |
| 20260901012711 | 72 | 116 | 0.0 | 0.0 | 0.00 | 0.00 | 0.63 | 96 | 1018.0 |
| 20260901012212 | 72 | 102 | 0.0 | 0.0 | 0.00 | 0.00 | 0.63 | 96 | 1018.0 |
| 20260901011709 | 72 | 119 | 0.0 | 0.0 | 0.00 | 0.00 | 0.63 | 96 | 1018.0 |
| 20260901011210 | 72 | 82 | 0.0 | 0.0 | 0.00 | 0.00 | 0.63 | 95 | 1018.0 |
| 20260901010709 | 72 | 79 | 0.0 | 0.0 | 0.00 | 0.00 | 0.63 | 96 | 1018.0 |
| 20260901010209 | 72 | 132 | 0.0 | 0.0 | 0.00 | 0.00 | 0.63 | 96 | 1018.0 |
| 20260901005709 | 72 | 55 | 0.0 | 0.0 | 0.00 | 0.00 | 0.63 | 96 | 1017.0 |
| 20260901005211 | 72 | 135 | 0.0 | 0.0 | 0.00 | 0.00 | 0.63 | 95 | 1017.0 |
| 20260901004711 | 72 | 184 | 0.0 | 0.0 | 0.00 | 0.00 | 0.63 | 95 | 1017.0 |
| 20260901004214 | 72 | 201 | 0.0 | 0.0 | 0.00 | 0.00 | 0.63 | 95 | 1017.0 |
| 20260901003710 | 72 | 143 | 0.0 | 0.0 | 0.00 | 0.00 | 0.63 | 95 | 1017.0 |
| 20260901003209 | 72 | 62 | 0.0 | 0.0 | 0.00 | 0.00 | 0.63 | 95 | 1017.0 |
| 20260901002709 | 72 | 242 | 0.0 | 0.0 | 0.00 | 0.00 | 0.63 | 95 | 1017.0 |
| 20260901002210 | 72 | 142 | 0.0 | 0.0 | 0.00 | 0.00 | 0.63 | 95 | 1017.0 |
| 20260901001710 | 72 | 176 | 0.0 | 0.0 | 0.00 | 0.00 | 0.63 | 95 | 1017.0 |
| 20260901001210 | 72 | 104 | 0.0 | 0.0 | 0.00 | 0.00 | 0.63 | 95 | 1017.0 |
| 20260901000710 | 72 | 77 | 0.0 | 0.0 | 0.00 | 0.00 | 0.63 | 95 | 1017.0 |
| 20260901000211 | 72 | 152 | 0.0 | 0.0 | 0.00 | 0.00 | 0.63 | 95 | 1017.0 |
| 20260831235710 | 72 | 140 | 0.0 | 0.0 | 0.00 | 0.00 | 0.63 | 95 | 1017.0 |
| 20260831235209 | 73 | 162 | 0.0 | 0.0 | 0.00 | 0.00 | 0.63 | 95 | 1017.0 |
| 20260831234709 | 73 | 152 | 0.0 | 0.0 | 0.00 | 0.00 | 0.63 | 95 | 1017.0 |
| 20260831234209 | 73 | 108 | 0.0 | 2.0 | 0.00 | 0.00 | 0.63 | 95 | 1017.0 |
| 20260831233709 | 73 | 202 | 2.0 | 4.0 | 0.00 | 0.00 | 0.63 | 95 | 1017.0 |
| 20260831233210 | 73 | 107 | 0.0 | 0.0 | 0.00 | 0.00 | 0.63 | 95 | 1017.0 |
| 20260831232709 | 73 | 27 | 0.0 | 3.0 | 0.00 | 0.00 | 0.63 | 94 | 1017.0 |
| 20260831232210 | 73 | 258 | 0.0 | 3.0 | 0.00 | 0.00 | 0.63 | 94 | 1017.0 |
| 20260831231713 | 73 | 240 | 2.0 | 3.0 | 0.00 | 0.00 | 0.63 | 94 | 1017.0 |
| 20260831231209 | 74 | 120 | 0.0 | 0.0 | 0.00 | 0.00 | 0.63 | 94 | 1017.0 |
| 20260831230710 | 74 | 178 | 0.0 | 1.0 | 0.00 | 0.00 | 0.63 | 93 | 1017.0 |
| 20260831230209 | 74 | 104 | 0.0 | 0.0 | 0.00 | 0.00 | 0.63 | 93 | 1017.0 |
| 20260831225710 | 74 | 77 | 0.0 | 0.0 | 0.00 | 0.00 | 0.63 | 93 | 1017.0 |
| 20260831225209 | 74 | 149 | 0.0 | 0.0 | 0.00 | 0.00 | 0.63 | 92 | 1017.0 |
| 20260831224710 | 74 | 194 | 0.0 | 1.0 | 0.00 | 0.00 | 0.63 | 92 | 1017.0 |
| 20260831224211 | 74 | 113 | 0.0 | 1.0 | 0.00 | 0.00 | 0.63 | 92 | 1017.0 |
| 20260831223711 | 74 | 143 | 0.0 | 0.0 | 0.00 | 0.00 | 0.63 | 92 | 1017.0 |
| 20260831223210 | 74 | 118 | 0.0 | 0.0 | 0.00 | 0.00 | 0.63 | 92 | 1017.0 |
| 20260831222709 | 74 | 320 | 0.0 | 2.0 | 0.00 | 0.00 | 0.63 | 92 | 1017.0 |
| 20260831222210 | 74 | 231 | 0.0 | 0.0 | 0.00 | 0.00 | 0.63 | 92 | 1017.0 |
| 20260831221709 | 74 | 163 | 3.0 | 3.0 | 0.00 | 0.00 | 0.63 | 92 | 1017.0 |
| 20260831221209 | 74 | 58 | 0.0 | 2.0 | 0.00 | 0.00 | 0.63 | 92 | 1017.0 |
| 20260831220710 | 74 | 139 | 1.0 | 2.0 | 0.00 | 0.00 | 0.63 | 93 | 1018.0 |
| 20260831220209 | 74 | 257 | 0.0 | 2.0 | 0.00 | 0.00 | 0.63 | 93 | 1018.0 |
| 20260831215710 | 74 | 289 | 1.0 | 2.0 | 0.00 | 0.00 | 0.63 | 93 | 1018.0 |
| 20260831215209 | 74 | 230 | 0.0 | 3.0 | 0.00 | 0.00 | 0.63 | 94 | 1018.0 |
| 20260831214711 | 74 | 127 | 2.0 | 4.0 | 0.00 | 0.00 | 0.63 | 94 | 1018.0 |
| 20260831214209 | 74 | 213 | 2.0 | 4.0 | 0.00 | 0.00 | 0.63 | 94 | 1018.0 |
| 20260831213709 | 74 | 206 | 2.0 | 4.0 | 0.00 | 0.00 | 0.63 | 94 | 1018.0 |
| 20260831213210 | 74 | 269 | 1.0 | 4.0 | 0.00 | 0.00 | 0.63 | 94 | 1018.0 |
| 20260831212711 | 74 | 130 | 0.0 | 0.0 | 0.00 | 0.00 | 0.63 | 94 | 1018.0 |
| 20260831212210 | 74 | 89 | 3.0 | 4.0 | 0.00 | 0.00 | 0.63 | 95 | 1018.0 |
| 20260831211709 | 74 | 254 | 0.0 | 2.0 | 0.00 | 0.00 | 0.63 | 95 | 1018.0 |
| 20260831211209 | 74 | 100 | 4.0 | 4.0 | 0.00 | 0.00 | 0.63 | 95 | 1018.0 |
| 20260831210712 | 73 | 220 | 3.0 | 4.0 | 0.00 | 0.00 | 0.63 | 95 | 1018.0 |
| 20260831210210 | 73 | 357 | 3.0 | 3.0 | 0.00 | 0.00 | 0.63 | 95 | 1017.0 |
| 20260831205709 | 73 | 181 | 2.0 | 3.0 | 0.00 | 0.00 | 0.63 | 96 | 1017.0 |
| 20260831205210 | 73 | 176 | 4.0 | 4.0 | 0.00 | 0.00 | 0.63 | 96 | 1017.0 |
| 20260831204710 | 73 | 221 | 0.0 | 3.0 | 0.00 | 0.00 | 0.63 | 96 | 1017.0 |
| 20260831204209 | 73 | 182 | 0.0 | 3.0 | 0.00 | 0.00 | 0.63 | 96 | 1017.0 |
| 20260831203709 | 73 | 189 | 0.0 | 0.0 | 0.01 | 0.00 | 0.63 | 96 | 1017.0 |
| 20260831203210 | 73 | 163 | 0.0 | 0.0 | 0.01 | 0.00 | 0.63 | 96 | 1017.0 |
| 20260831202710 | 73 | 112 | 0.0 | 0.0 | 0.01 | 0.00 | 0.63 | 96 | 1017.0 |
| 20260831202209 | 72 | 85 | 0.0 | 0.0 | 0.02 | 0.00 | 0.63 | 96 | 1017.0 |
| 20260831201710 | 72 | 8 | 0.0 | 0.0 | 0.02 | 0.00 | 0.63 | 96 | 1017.0 |
| 20260831201209 | 72 | 161 | 0.0 | 0.0 | 0.02 | 0.00 | 0.63 | 96 | 1017.0 |
| 20260831200710 | 72 | 179 | 0.0 | 0.0 | 0.02 | 0.00 | 0.63 | 96 | 1017.0 |
| 20260831200210 | 72 | 283 | 0.0 | 0.0 | 0.02 | 0.00 | 0.63 | 96 | 1018.0 |
| 20260831195709 | 72 | 244 | 0.0 | 4.0 | 0.02 | 0.00 | 0.63 | 95 | 1018.0 |
| 20260831195209 | 72 | 8 | 0.0 | 0.0 | 0.02 | 0.00 | 0.63 | 95 | 1018.0 |
| 20260831194221 | 72 | 115 | 0.0 | 1.0 | 0.01 | 0.00 | 0.62 | 95 | 1018.0 |
| 20260831193709 | 72 | 148 | 0.0 | 0.0 | 0.01 | 0.00 | 0.62 | 95 | 1018.0 |
| 20260831193209 | 72 | 176 | 0.0 | 0.0 | 0.01 | 0.00 | 0.62 | 95 | 1018.0 |
| 20260831192709 | 72 | 100 | 2.0 | 2.0 | 0.01 | 0.00 | 0.62 | 95 | 1018.0 |
| 20260831192209 | 72 | 187 | 0.0 | 2.0 | 0.00 | 0.00 | 0.61 | 95 | 1018.0 |
| 20260831191712 | 72 | 147 | 0.0 | 3.0 | 0.01 | 0.00 | 0.61 | 95 | 1018.0 |
| 20260831191209 | 72 | 144 | 0.0 | 2.0 | 0.01 | 0.00 | 0.61 | 95 | 1018.0 |
| 20260831190710 | 71 | 101 | 0.0 | 1.0 | 0.01 | 0.00 | 0.61 | 94 | 1018.0 |
| 20260831190210 | 71 | 186 | 3.0 | 6.0 | 0.01 | 0.00 | 0.61 | 94 | 1018.0 |
| 20260831185710 | 71 | 137 | 3.0 | 3.0 | 0.01 | 0.00 | 0.61 | 94 | 1018.0 |
| 20260831185210 | 71 | 161 | 0.0 | 4.0 | 0.01 | 0.00 | 0.61 | 94 | 1018.0 |
| 20260831184709 | 71 | 246 | 0.0 | 0.0 | 0.01 | 0.00 | 0.61 | 94 | 1018.0 |
| 20260831184210 | 71 | 149 | 0.0 | 0.0 | 0.01 | 0.00 | 0.61 | 94 | 1018.0 |
| 20260831183711 | 71 | 230 | 0.0 | 0.0 | 0.01 | 0.00 | 0.61 | 94 | 1018.0 |
| 20260831183209 | 71 | 150 | 0.0 | 0.0 | 0.01 | 0.00 | 0.61 | 94 | 1018.0 |
| 20260831182709 | 71 | 144 | 0.0 | 0.0 | 0.01 | 0.00 | 0.61 | 93 | 1018.0 |
| 20260831182209 | 71 | 192 | 0.0 | 2.0 | 0.01 | 0.00 | 0.61 | 93 | 1018.0 |
| 20260831181709 | 72 | 120 | 0.0 | 0.0 | 0.00 | 0.00 | 0.60 | 93 | 1018.0 |
| 20260831181210 | 72 | 203 | 0.0 | 3.0 | 0.00 | 0.00 | 0.60 | 93 | 1018.0 |
| 20260831180709 | 72 | 129 | 2.0 | 2.0 | 0.00 | 0.00 | 0.60 | 92 | 1018.0 |
| 20260831180210 | 72 | 136 | 1.0 | 2.0 | 0.00 | 0.00 | 0.60 | 92 | 1019.0 |
| 20260831175709 | 72 | 103 | 2.0 | 2.0 | 0.00 | 0.00 | 0.60 | 91 | 1018.0 |
| 20260831175210 | 72 | 201 | 1.0 | 3.0 | 0.00 | 0.00 | 0.60 | 91 | 1018.0 |
| 20260831174709 | 72 | 172 | 1.0 | 1.0 | 0.00 | 0.00 | 0.60 | 91 | 1019.0 |
| 20260831174210 | 72 | 171 | 0.0 | 0.0 | 0.00 | 0.00 | 0.60 | 92 | 1019.0 |
| 20260831173709 | 72 | 229 | 0.0 | 1.0 | 0.00 | 0.00 | 0.60 | 92 | 1019.0 |
| 20260831173209 | 72 | 334 | 0.0 | 0.0 | 0.00 | 0.00 | 0.60 | 92 | 1019.0 |
| 20260831172710 | 72 | 183 | 0.0 | 1.0 | 0.00 | 0.00 | 0.60 | 92 | 1019.0 |
| 20260831172209 | 72 | 117 | 0.0 | 1.0 | 0.00 | 0.00 | 0.60 | 92 | 1019.0 |
| 20260831171710 | 72 | 80 | 0.0 | 0.0 | 0.00 | 0.00 | 0.60 | 92 | 1019.0 |
| 20260831171210 | 72 | 49 | 0.0 | 0.0 | 0.00 | 0.00 | 0.60 | 93 | 1019.0 |
| 20260831170711 | 72 | 50 | 0.0 | 5.0 | 0.00 | 0.00 | 0.60 | 93 | 1019.0 |
| 20260831170210 | 71 | 229 | 0.0 | 3.0 | 0.00 | 0.00 | 0.60 | 93 | 1019.0 |
| 20260831165710 | 71 | 161 | 1.0 | 3.0 | 0.00 | 0.00 | 0.60 | 94 | 1019.0 |
| 20260831165209 | 72 | 178 | 1.0 | 1.0 | 0.00 | 0.00 | 0.60 | 96 | 1019.0 |
| 20260831164709 | 71 | 182 | 0.0 | 3.0 | 0.00 | 0.00 | 0.60 | 97 | 1019.0 |
| 20260831164212 | 71 | 56 | 0.0 | 0.0 | 0.00 | 0.00 | 0.60 | 98 | 1019.0 |
| 20260831163710 | 71 | 221 | 0.0 | 2.0 | 0.00 | 0.00 | 0.60 | 97 | 1019.0 |
| 20260831163210 | 70 | 227 | 0.0 | 0.0 | 0.00 | 0.00 | 0.60 | 98 | 1019.0 |
| 20260831162710 | 70 | 247 | 0.0 | 0.0 | 0.00 | 0.00 | 0.60 | 98 | 1019.0 |
| 20260831162211 | 69 | 121 | 0.0 | 0.0 | 0.00 | 0.00 | 0.60 | 98 | 1019.0 |
| 20260831161709 | 69 | 132 | 0.0 | 0.0 | 0.00 | 0.00 | 0.60 | 98 | 1019.0 |
| 20260831161210 | 69 | 105 | 0.0 | 0.0 | 0.00 | 0.00 | 0.60 | 98 | 1019.0 |
| 20260831160710 | 69 | 171 | 0.0 | 0.0 | 0.00 | 0.00 | 0.60 | 98 | 1019.0 |
| 20260831160210 | 69 | 171 | 0.0 | 0.0 | 0.00 | 0.00 | 0.60 | 98 | 1019.0 |
| 20260831155709 | 69 | 104 | 0.0 | 0.0 | 0.01 | 0.00 | 0.60 | 98 | 1019.0 |
| 20260831155210 | 69 | 165 | 0.0 | 0.0 | 0.01 | 0.00 | 0.60 | 98 | 1019.0 |
| 20260831154710 | 69 | 197 | 0.0 | 0.0 | 0.01 | 0.00 | 0.60 | 98 | 1019.0 |
| 20260831154211 | 69 | 86 | 0.0 | 0.0 | 0.02 | 0.00 | 0.60 | 98 | 1019.0 |
| 20260831153710 | 68 | 212 | 0.0 | 0.0 | 0.02 | 0.00 | 0.60 | 98 | 1019.0 |
| 20260831153211 | 68 | 96 | 0.0 | 0.0 | 0.03 | 0.00 | 0.60 | 98 | 1019.0 |
| 20260831152712 | 68 | 242 | 0.0 | 0.0 | 0.04 | 0.00 | 0.60 | 98 | 1019.0 |
| 20260831152212 | 68 | 72 | 0.0 | 0.0 | 0.09 | 0.00 | 0.60 | 98 | 1019.0 |
| 20260831151709 | 68 | 135 | 0.0 | 0.0 | 0.19 | 0.00 | 0.60 | 98 | 1019.0 |
| 20260831151209 | 68 | 106 | 0.0 | 0.0 | 0.24 | 0.00 | 0.60 | 98 | 1019.0 |
| 20260831150709 | 68 | 195 | 0.0 | 0.0 | 0.29 | 0.00 | 0.60 | 98 | 1019.0 |
| 20260831150209 | 68 | 172 | 0.0 | 0.0 | 0.30 | 0.00 | 0.60 | 98 | 1019.0 |
| 20260831145710 | 68 | 286 | 0.0 | 0.0 | 0.30 | 0.00 | 0.59 | 98 | 1019.0 |
| 20260831145210 | 68 | 88 | 0.0 | 0.0 | 0.30 | 0.00 | 0.59 | 98 | 1019.0 |
| 20260831144710 | 67 | 159 | 0.0 | 0.0 | 0.34 | 0.00 | 0.59 | 98 | 1019.0 |
| 20260831144209 | 67 | 106 | 0.0 | 0.0 | 0.33 | 0.00 | 0.58 | 98 | 1019.0 |
| 20260831143710 | 67 | 81 | 0.0 | 0.0 | 0.33 | 0.00 | 0.58 | 98 | 1019.0 |
| 20260831143210 | 67 | 96 | 0.0 | 0.0 | 0.33 | 0.00 | 0.57 | 98 | 1019.0 |
| 20260831142710 | 67 | 100 | 0.0 | 0.0 | 0.35 | 0.00 | 0.56 | 98 | 1019.0 |
| 20260831142210 | 67 | 3 | 0.0 | 0.0 | 0.30 | 0.00 | 0.50 | 98 | 1019.0 |
| 20260831141711 | 67 | 97 | 0.0 | 0.0 | 0.22 | 0.00 | 0.41 | 98 | 1019.0 |
| 20260831141211 | 67 | 97 | 0.0 | 0.0 | 0.17 | 0.00 | 0.35 | 98 | 1019.0 |
| 20260831140709 | 67 | 149 | 0.0 | 0.0 | 0.16 | 0.00 | 0.31 | 98 | 1019.0 |
| 20260831140211 | 67 | 88 | 0.0 | 0.0 | 0.17 | 0.00 | 0.30 | 98 | 1019.0 |
| 20260831135711 | 67 | 210 | 0.0 | 0.0 | 0.16 | 0.00 | 0.29 | 98 | 1019.0 |
| 20260831135210 | 67 | 81 | 0.0 | 0.0 | 0.16 | 0.00 | 0.29 | 98 | 1019.0 |
| 20260831134709 | 67 | 83 | 0.0 | 0.0 | 0.13 | 0.00 | 0.25 | 98 | 1019.0 |
| 20260831134211 | 67 | 80 | 0.0 | 0.0 | 0.13 | 0.00 | 0.25 | 98 | 1019.0 |
| 20260831133709 | 67 | 134 | 0.0 | 0.0 | 0.13 | 0.00 | 0.25 | 98 | 1019.0 |